Regional Weather Roundup
Issued by NWS

Home | Current Version | Previous Version | Graphics & Text | Print | Product List | Glossary On
Versions: 1 2 3 4 5 6 7 8 9 10 11 12 13 14 15 16 17 18 19 20 21 22 23 24 25 26 27 28 29 30 31 32 33 34 35 36 37 38 39 40 41 42 43 44 45 46 47 48 49 50
000
ASUS45 KBOU 031507
RWRCO

WEATHER ROUNDUP FOR COLORADO
NATIONAL WEATHER SERVICE DENVER/BOULDER CO
800 AM MST TUE MAR 03 2015

NOTE: "FAIR" INDICATES FEW OR NO CLOUDS BELOW 12000 FEET WITH NO
SIGNIFICANT WEATHER AND/OR OBSTRUCTIONS TO VISIBILITY.

COZ001>005-013-030-031-031600-
...NORTHWEST COLORADO...

CITY           SKY/WX    TMP DP  RH WIND       PRES   REMARKS
CRAIG          SNOW      27  25  92 CALM      29.78S VSB 1/4
HAYDEN         CLOUDY    25  21  86 NW7       29.77S WCI  17
MEEKER         MOSUNNY   29  23  78 W5        29.77R WCI  24
MOUNT WERNER   NOT AVBL
STEAMBOAT SPGS CLOUDY    24  23  93 CALM      29.77R
WALDEN         CLOUDY    19  14  79 SE6       29.71R WCI  11
$$

COZ006>008-011-031600-
...WEST CENTRAL VALLEYS...

CITY           SKY/WX    TMP DP  RH WIND       PRES   REMARKS
GRAND JUNCTION PTSUNNY   32  28  85 SE3       29.82R
MONTROSE       PTSUNNY   33  24  69 S7        29.85S WCI  27
EAGLE          MOSUNNY   34  28  80 CALM      29.79R
RIFLE          CLOUDY    34  28  79 NE6       29.80S WCI  29
DELTA          CLOUDY    36  30  80 CALM      29.84S
NUCLA          CLOUDY    34  27  75 CALM      29.89S
$$

COZ017>023-064>068-031600-
...SOUTHWEST COLORADO...

CITY           SKY/WX    TMP DP  RH WIND       PRES   REMARKS
DURANGO        MOSUNNY   25  22  88 NE6       29.88S WCI  18
CORTEZ         CLOUDY    32  29  88 NE3       29.88F
PAGOSA SPRINGS CLOUDY    28  26  94 SE5       29.87F WCI  22
TELLURIDE      CLOUDY    23  17  75 CALM      29.83S
WOLF CREEK PAS CLOUDY    10   9  92 SW13G24   29.81F WCI  -5
$$

COZ009-010-012-014-032>034-037-058>063-031600-
...CENTRAL COLORADO...

CITY           SKY/WX    TMP DP  RH WIND       PRES   REMARKS
ASPEN          MOSUNNY   21  17  84 S3        29.76R
BUENA VISTA    MOSUNNY   29  11  47 W13G18    29.76S WCI  19
COPPER MTN     LGT SNOW  14   9  79 W15G22    29.71S VSB 1   WCI  -1
BERTHOUD PASS  NOT AVBL
COTTONWOOD PAS MOSUNNY   27   9  46 W21G29    29.75R WCI  13
GUNNISON       MOSUNNY   27  16  63 SW9       29.83R WCI  17
KREMMLING      FLURRIES  28  21  74 N14G20    29.76R WCI  17
LEADVILLE      PTSUNNY   18  10  71 N9        29.73R WCI   7
SALIDA         MOSUNNY   34  15  46 SW13G20   29.86R WCI  25
SUNLIGHT       LGT SNOW  19  18  93 CALM        N/A
WILKERSON PASS SUNNY     14   9  79 W3        29.76R
$$

COZ069>075-031600-
...SAN LUIS VALLEY/SANGRE DE CRISTO MOUNTAINS...

CITY           SKY/WX    TMP DP  RH WIND       PRES   REMARKS
ALAMOSA        SUNNY     28  18  66 S18       29.81S WCI  15
LA VETA PASS   PTSUNNY   19  14  79 S7G18     29.80R WCI  10
SAGUACHE       MOSUNNY   28  16  59 N6        29.82R WCI  22
$$

COZ035-036-038>040-031600-
...NORTHERN COLORADO FRONT RANGE...

CITY           SKY/WX    TMP DP  RH WIND       PRES   REMARKS
DENVER INTL AP CLOUDY    24  21  88 N16       29.84R WCI  11
DMNS CITY PARK   N/A     25  19  78 N7G14     29.89R WCI  17
AURORA         CLOUDY    24  21  89 N12       29.85R WCI  13
FRONT RANGE AP NOT AVBL
ERIE MUNI ARPT CLOUDY    26  18  74 N14       29.87R WCI  14
BOULDER MUN AP CLOUDY    27  18  69 NE13      29.86R WCI  16
CENTENNIAL     LGT SNOW  23  21  92 N12       29.84R FOG     WCI  12
BROOMFIELD     NOT AVBL
FORT COLLINS   CLOUDY    23  14  68 N21       29.87R WCI   8
LONGMONT       CLOUDY    31  18  58 NE7       29.89R WCI  24
$$

COZ041-046-047-076>085-087-088-031600-
...PIKES PEAK/PALMER DIVIDE AND SOUTHERN FOOTHILLS...

CITY           SKY/WX    TMP DP  RH WIND       PRES   REMARKS
COLO. SPRINGS  MOSUNNY   35  13  40 NW8       29.74R WCI  29
A. F. ACADEMY  SUNNY     35  10  34 W15       29.73R WCI  25
ELLICOTT       NOT AVBL
FALCON         SUNNY     33  12  41 NW7       29.76R WCI  27
FORT CARSON    MOSUNNY   36  15  42 SW16      29.73R
LIMON          FRZ RAIN  26  25  96 N13       29.82R VSB 3/4 WCI  15
MONUMENT HILL  SNOW      21  19  93 N13       29.78R VSB<1/4 WCI   9
TRINIDAD       PTSUNNY   42  18  37 SW14      29.78R
$$

COZ042>045-048>051-090-091-031600-
...NORTHEAST COLORADO...

CITY           SKY/WX    TMP DP  RH WIND       PRES   REMARKS
GREELEY ARPT   CLOUDY    25  12  58 N18G28    29.86R WCI  11
AKRON          CLOUDY    21  19  92 N28G33    29.84R WCI   3
BURLINGTON     CLOUDY    31  28  89 N18G24    29.80R WCI  19
WRAY           CLOUDY    29  24  80 N25G31    29.85R WCI  15
STERLING       SUNNY     27  18  69 N24G32    29.86R WCI  12
HOLYOKE        NOT AVBL
FORT MORGAN    SUNNY     25  19  76 N24G37    29.85R WCI  10
$$

COZ086-089-092>099-031600-
...SOUTHEAST COLORADO...

CITY           SKY/WX    TMP DP  RH WIND       PRES   REMARKS
PUEBLO         MOSUNNY   35  23  61 E7        29.76R WCI  29
LA JUNTA       PTSUNNY   43  25  49 W16       29.75S
LAMAR          CLOUDY    42  27  55 W15       29.73R
SPRINGFIELD      N/A     41  28  60 SW12      29.79R
$$



USA.gov is the U.S. government's official web portal to all federal, state and local government web resources and services.